Tracking 19969 objects as of 12-Nov-2019
Live streaming from Space Station
objects crossing your sky now
Track the group of recently launched Starlink satellites

THORAD DELTA 1 DEB

Track THORAD DELTA 1 DEB now!
10-day predictions


NORAD ID: 8403
Int'l Code: 1974-089CF
Perigee: 1,442.1 km
Apogee: 1,528.7 km
Inclination: 101.3 °
Period: 115.5 minutes
Semi major axis: 7856 km
RCS: 0.0456 m2 (small)
Launch date: November 15, 1974
Source: United States (US)
Launch site: AIR FORCE WESTERN TEST RANGE (AFWTR)

Note: This is SATELLITE DEBRIS
aabbcc
Your satellite tracking list
Your tracking list is empty




NASA's NSSDC Master Catalog

Two Line Element Set (TLE):
1  8403U 74089CF  19315.48566191 +.00000007 +00000-0 +32896-3 0  9990
2  8403 101.3119 131.1290 0055107 008.8206 006.2346 12.46708668049172
Source of the keplerian elements: AFSPC